QPF
0.03 0.02 0.02 0.03 0.03 0.03 0.03 0.03 0.04 0.03 0.02 0.02 0.02 0.01 0.02 0.02 0.01 0.01 0.02 0.05 0.08 0.10 0.06 0.05 0.06 0.07 0.10 0.11 0.09 0.07 0.07 0.05 0.05 0.04 0.04 0.05 0.05 0.04 0.04 0.04 0.05 0.05 0.05
0.03 0.04 0.04 0.03 0.03 0.03 0.03 0.03 0.04 0.02 0.01 0.02 0.03 0.03 0.02 0.02 0.01 0.01 0.01 0.03 0.04 0.07 0.08 0.08 0.06 0.08 0.10 0.10 0.09 0.09 0.08 0.05 0.05 0.06 0.07 0.06 0.06 0.05 0.05 0.05 0.05 0.05 0.05
0.03 0.04 0.04 0.04 0.04 0.03 0.02 0.03 0.02 0.02 0.02 0.02 0.02 0.02 0.01 0.02 0.02 0.01 0.01 0.02 0.02 0.05 0.08 0.07 0.06 0.07 0.09 0.09 0.08 0.08 0.07 0.05 0.04 0.04 0.04 0.05 0.05 0.05 0.04 0.05 0.04 0.05 0.05
0.02 0.03 0.03 0.04 0.05 0.04 0.02 0.02 0.02 0.01 0.01 0.01 0.01 0.01 0.02 0.03 0.02 0.01 0.01 0.01 0.01 0.02 0.04 0.06 0.07 0.06 0.06 0.05 0.05 0.05 0.06 0.05 0.03 0.03 0.03 0.03 0.03 0.03 0.03 0.04 0.04 0.05 0.05
0.02 0.02 0.02 0.03 0.03 0.03 0.02 0.02 0.01 0.01 0.02 0.01 0.00 0.00 0.01 0.01 0.02 0.02 0.01 0.01 0.01 0.01 0.01 0.02 0.03 0.03 0.03 0.03 0.04 0.04 0.03 0.03 0.03 0.02 0.02 0.02 0.02 0.02 0.02 0.03 0.04 0.03 0.05
0.02 0.03 0.02 0.02 0.03 0.02 0.01 0.01 0.01 0.02 0.02 0.01 0.01 0.00 0.01 0.01 0.02 0.02 0.02 0.01 0.02 0.01 0.01 0.00 0.01 0.01 0.03 0.03 0.03 0.04 0.03 0.03 0.02 0.02 0.02 0.01 0.01 0.01 0.02 0.03 0.03 0.03 0.05
0.03 0.02 0.02 0.03 0.02 0.02 0.02 0.01 0.02 0.02 0.02 0.01 0.01 0.00 0.01 0.01 0.02 0.03 0.03 0.02 0.03 0.02 0.01 0.00 0.00 0.00 0.01 0.03 0.03 0.03 0.03 0.03 0.02 0.01 0.01 0.02 0.02 0.02 0.01 0.01 0.02 0.03 0.04
0.03 0.02 0.02 0.03 0.02 0.02 0.02 0.01 0.01 0.02 0.02 0.01 0.00 0.00 0.01 0.01 0.03 0.04 0.03 0.03 0.03 0.02 0.01 0.01 0.00 0.00 0.00 0.01 0.01 0.01 0.01 0.02 0.02 0.02 0.02 0.02 0.02 0.02 0.02 0.02 0.02 0.03 0.03
0.04 0.04 0.03 0.02 0.02 0.02 0.02 0.01 0.01 0.02 0.01 0.01 0.00 0.00 0.00 0.01 0.01 0.02 0.02 0.02 0.03 0.03 0.02 0.01 0.01 0.00 0.00 0.00 0.01 0.01 0.01 0.01 0.02 0.02 0.03 0.04 0.03 0.03 0.03 0.03 0.03 0.03 0.03
0.04 0.04 0.04 0.03 0.02 0.02 0.02 0.01 0.01 0.01 0.01 0.01 0.01 0.00 0.00 0.00 0.00 0.01 0.01 0.01 0.01 0.02 0.02 0.01 0.01 0.01 0.01 0.00 0.01 0.01 0.01 0.01 0.02 0.05 0.09 0.08 0.05 0.04 0.04 0.04 0.04 0.03 0.02
0.04 0.05 0.05 0.04 0.03 0.02 0.02 0.02 0.01 0.01 0.01 0.01 0.01 0.01 0.00 0.00 0.00 0.00 0.01 0.01 0.00 0.01 0.01 0.01 0.01 0.01 0.00 0.00 0.00 0.00 0.00 0.00 0.01 0.04 0.11 0.10 0.08 0.05 0.05 0.04 0.04 0.02 0.02
0.06 0.06 0.05 0.04 0.02 0.02 0.02 0.02 0.02 0.03 0.02 0.01 0.01 0.01 0.01 0.00 0.00 0.01 0.01 0.01 0.00 0.00 0.01 0.01 0.00 0.00 0.00 0.00 0.00 0.00 0.00 0.00 0.01 0.01 0.03 0.04 0.04 0.03 0.03 0.04 0.05 0.03 0.02
0.05 0.06 0.05 0.04 0.03 0.02 0.02 0.04 0.03 0.02 0.01 0.01 0.01 0.01 0.01 0.01 0.00 0.00 0.01 0.01 0.01 0.01 0.01 0.00 0.00 0.00 0.00 0.00 0.00 0.00 0.00 0.00 0.00 0.00 0.01 0.01 0.01 0.02 0.03 0.03 0.04 0.05 0.03
0.04 0.06 0.05 0.05 0.04 0.03 0.03 0.04 0.02 0.01 0.02 0.01 0.01 0.01 0.02 0.01 0.01 0.01 0.00 0.01 0.01 0.01 0.00 0.00 0.01 0.00 0.00 0.00 0.00 0.00 0.00 0.00 0.00 0.00 0.00 0.00 0.00 0.01 0.02 0.02 0.03 0.04 0.04
0.04 0.05 0.05 0.05 0.05 0.04 0.03 0.03 0.02 0.01 0.01 0.02 0.02 0.02 0.02 0.02 0.02 0.01 0.00 0.00 0.01 0.01 0.01 0.01 0.01 0.01 0.01 0.01 0.01 0.00 0.00 0.00 0.00 0.00 0.00 0.00 0.00 0.00 0.01 0.01 0.02 0.02 0.03
0.04 0.04 0.05 0.06 0.05 0.05 0.04 0.04 0.03 0.02 0.03 0.04 0.04 0.04 0.03 0.02 0.01 0.01 0.01 0.01 0.01 0.01 0.01 0.00 0.00 0.00 0.01 0.01 0.01 0.00 0.00 0.01 0.01 0.01 0.00 0.00 0.00 0.00 0.00 0.00 0.01 0.01 0.01
0.04 0.04 0.04 0.04 0.05 0.05 0.05 0.04 0.04 0.03 0.03 0.03 0.03 0.02 0.03 0.02 0.01 0.01 0.01 0.01 0.01 0.01 0.00 0.00 0.00 0.00 0.00 0.00 0.00 0.00 0.00 0.00 0.00 0.00 0.00 0.00 0.00 0.00 0.00 0.00 0.00 0.00 0.01
0.05 0.06 0.05 0.04 0.04 0.04 0.05 0.04 0.03 0.02 0.02 0.02 0.02 0.02 0.01 0.02 0.01 0.01 0.00 0.00 0.01 0.01 0.00 0.00 0.00 0.00 0.00 0.00 0.00 0.00 0.00 0.00 0.00 0.00 0.00 0.00 0.00 0.00 0.00 0.00 0.00 0.00 0.00
0.04 0.04 0.04 0.04 0.04 0.04 0.04 0.03 0.03 0.02 0.02 0.02 0.02 0.02 0.01 0.01 0.01 0.01 0.01 0.00 0.01 0.01 0.00 0.00 0.00 0.00 0.00 0.00 0.00 0.00 0.00 0.00 0.00 0.00 0.00 0.00 0.00 0.00 0.00 0.00 0.00 0.00 0.00
0.04 0.04 0.04 0.05 0.06 0.06 0.06 0.05 0.04 0.02 0.02 0.02 0.02 0.02 0.01 0.01 0.01 0.01 0.02 0.01 0.01 0.00 0.00 0.00 0.00 0.00 0.00 0.00 0.00 0.00 0.00 0.00 0.00 0.00 0.00 0.00 0.00 0.00 0.00 0.00 0.00 0.00 0.00
0.04 0.04 0.05 0.05 0.07 0.08 0.08 0.07 0.07 0.06 0.04 0.03 0.03 0.02 0.01 0.01 0.01 0.01 0.02 0.02 0.01 0.00 0.00 0.00 0.00 0.00 0.00 0.00 0.00 0.00 0.00 0.00 0.00 0.00 0.00 0.00 0.00 0.00 0.00 0.00 0.00 0.00 0.00
0.03 0.04 0.04 0.05 0.05 0.05 0.08 0.09 0.09 0.08 0.07 0.05 0.05 0.04 0.03 0.02 0.01 0.02 0.02 0.01 0.01 0.00 0.00 0.00 0.00 0.00 0.00 0.00 0.00 0.00 0.00 0.00 0.00 0.00 0.00 0.00 0.01 0.01 0.00 0.00 0.00 0.00 0.00
0.03 0.03 0.04 0.04 0.04 0.05 0.05 0.07 0.09 0.08 0.07 0.06 0.06 0.05 0.03 0.02 0.02 0.02 0.01 0.01 0.01 0.01 0.00 0.00 0.00 0.00 0.00 0.00 0.00 0.00 0.00 0.00 0.00 0.00 0.01 0.01 0.01 0.00 0.00 0.00 0.00 0.00 0.00
0.02 0.03 0.04 0.03 0.03 0.03 0.04 0.04 0.05 0.06 0.05 0.05 0.05 0.04 0.03 0.02 0.02 0.02 0.01 0.01 0.01 0.01 0.01 0.02 0.02 0.01 0.01 0.01 0.01 0.01 0.01 0.01 0.01 0.01 0.01 0.01 0.01 0.00 0.00 0.00 0.01 0.01 0.01
0.02 0.03 0.03 0.03 0.03 0.04 0.05 0.05 0.05 0.05 0.04 0.04 0.04 0.03 0.03 0.03 0.02 0.02 0.01 0.01 0.01 0.02 0.02 0.02 0.02 0.02 0.02 0.02 0.02 0.01 0.01 0.01 0.01 0.01 0.01 0.01 0.01 0.01 0.01 0.01 0.01 0.01 0.01
0.02 0.02 0.02 0.03 0.02 0.03 0.04 0.05 0.05 0.05 0.04 0.03 0.04 0.04 0.04 0.04 0.03 0.03 0.02 0.02 0.01 0.01 0.01 0.01 0.01 0.02 0.01 0.01 0.02 0.01 0.01 0.01 0.01 0.01 0.01 0.01 0.01 0.01 0.01 0.01 0.01 0.01 0.01
MSLP
1012.82 1012.88 1012.91 1012.91 1012.91 1012.94 1013.02 1013.16 1013.35 1013.59 1013.84 1014.08 1014.28 1014.43 1014.51 1014.52 1014.50 1014.43 1014.36 1014.30 1014.27 1014.29 1014.35 1014.47 1014.64 1014.84 1015.07 1015.29 1015.49 1015.66 1015.79 1015.88 1015.93 1015.96 1015.98 1016.00 1016.02 1016.04 1016.04 1016.01 1015.92 1015.77 1015.55
1012.95 1013.01 1013.05 1013.08 1013.11 1013.18 1013.30 1013.48 1013.71 1013.98 1014.27 1014.55 1014.78 1014.96 1015.06 1015.08 1015.04 1014.96 1014.86 1014.77 1014.71 1014.70 1014.76 1014.87 1015.05 1015.25 1015.47 1015.68 1015.87 1016.01 1016.11 1016.17 1016.20 1016.22 1016.24 1016.27 1016.30 1016.32 1016.32 1016.27 1016.17 1016.00 1015.76
1013.03 1013.10 1013.16 1013.24 1013.34 1013.47 1013.66 1013.89 1014.18 1014.50 1014.83 1015.15 1015.41 1015.61 1015.73 1015.76 1015.71 1015.61 1015.49 1015.37 1015.28 1015.24 1015.28 1015.38 1015.54 1015.73 1015.93 1016.12 1016.27 1016.38 1016.45 1016.48 1016.48 1016.49 1016.50 1016.52 1016.55 1016.57 1016.55 1016.50 1016.38 1016.20 1015.96
1013.08 1013.17 1013.28 1013.43 1013.61 1013.83 1014.09 1014.40 1014.75 1015.11 1015.48 1015.83 1016.12 1016.34 1016.47 1016.51 1016.47 1016.35 1016.21 1016.07 1015.95 1015.89 1015.89 1015.96 1016.09 1016.26 1016.42 1016.58 1016.69 1016.76 1016.79 1016.79 1016.78 1016.76 1016.76 1016.76 1016.78 1016.78 1016.75 1016.68 1016.55 1016.37 1016.15
1013.13 1013.25 1013.42 1013.65 1013.92 1014.23 1014.58 1014.96 1015.36 1015.76 1016.15 1016.51 1016.82 1017.06 1017.20 1017.26 1017.22 1017.12 1016.97 1016.82 1016.68 1016.59 1016.57 1016.60 1016.69 1016.81 1016.94 1017.05 1017.12 1017.15 1017.15 1017.12 1017.09 1017.05 1017.03 1017.01 1017.00 1016.98 1016.92 1016.83 1016.69 1016.51 1016.30
1013.22 1013.36 1013.60 1013.91 1014.27 1014.66 1015.08 1015.51 1015.94 1016.35 1016.75 1017.11 1017.42 1017.67 1017.83 1017.91 1017.91 1017.83 1017.71 1017.56 1017.43 1017.32 1017.27 1017.26 1017.30 1017.37 1017.45 1017.51 1017.55 1017.55 1017.52 1017.47 1017.42 1017.37 1017.33 1017.29 1017.24 1017.19 1017.10 1016.97 1016.82 1016.63 1016.43
1013.37 1013.54 1013.82 1014.19 1014.62 1015.07 1015.53 1015.98 1016.40 1016.81 1017.18 1017.53 1017.84 1018.09 1018.29 1018.41 1018.46 1018.44 1018.36 1018.24 1018.12 1018.01 1017.94 1017.90 1017.89 1017.91 1017.94 1017.96 1017.96 1017.94 1017.89 1017.84 1017.78 1017.72 1017.66 1017.59 1017.51 1017.41 1017.28 1017.12 1016.93 1016.73 1016.53
1013.60 1013.79 1014.10 1014.50 1014.96 1015.43 1015.89 1016.32 1016.71 1017.07 1017.41 1017.73 1018.03 1018.31 1018.54 1018.72 1018.84 1018.89 1018.88 1018.82 1018.73 1018.63 1018.54 1018.47 1018.43 1018.40 1018.38 1018.36 1018.34 1018.30 1018.25 1018.20 1018.14 1018.08 1018.01 1017.92 1017.81 1017.66 1017.48 1017.27 1017.05 1016.82 1016.59
1013.92 1014.10 1014.42 1014.83 1015.28 1015.73 1016.15 1016.52 1016.85 1017.15 1017.43 1017.72 1018.01 1018.30 1018.59 1018.84 1019.04 1019.17 1019.24 1019.25 1019.20 1019.12 1019.03 1018.95 1018.87 1018.80 1018.75 1018.70 1018.65 1018.61 1018.57 1018.52 1018.48 1018.42 1018.35 1018.24 1018.10 1017.91 1017.68 1017.42 1017.15 1016.87 1016.62
1014.30 1014.47 1014.78 1015.16 1015.57 1015.96 1016.31 1016.61 1016.85 1017.08 1017.30 1017.55 1017.83 1018.15 1018.47 1018.79 1019.07 1019.29 1019.44 1019.51 1019.52 1019.47 1019.39 1019.29 1019.19 1019.09 1019.01 1018.94 1018.89 1018.84 1018.81 1018.77 1018.74 1018.70 1018.62 1018.51 1018.34 1018.12 1017.84 1017.54 1017.21 1016.90 1016.61
1014.71 1014.88 1015.15 1015.48 1015.83 1016.15 1016.42 1016.62 1016.79 1016.93 1017.10 1017.31 1017.59 1017.91 1018.28 1018.65 1019.00 1019.28 1019.50 1019.63 1019.68 1019.66 1019.59 1019.49 1019.38 1019.27 1019.17 1019.09 1019.03 1018.98 1018.95 1018.93 1018.90 1018.86 1018.79 1018.67 1018.49 1018.25 1017.94 1017.60 1017.23 1016.87 1016.54
1015.12 1015.27 1015.51 1015.80 1016.08 1016.32 1016.50 1016.63 1016.71 1016.80 1016.92 1017.10 1017.36 1017.69 1018.07 1018.47 1018.85 1019.18 1019.44 1019.60 1019.68 1019.69 1019.64 1019.56 1019.45 1019.35 1019.24 1019.15 1019.08 1019.03 1018.99 1018.97 1018.95 1018.91 1018.84 1018.71 1018.53 1018.27 1017.96 1017.59 1017.19 1016.80 1016.43
1015.48 1015.63 1015.85 1016.09 1016.31 1016.49 1016.60 1016.67 1016.70 1016.74 1016.82 1016.98 1017.22 1017.54 1017.91 1018.31 1018.70 1019.03 1019.29 1019.48 1019.58 1019.61 1019.59 1019.52 1019.44 1019.35 1019.25 1019.16 1019.09 1019.02 1018.97 1018.93 1018.89 1018.84 1018.76 1018.64 1018.46 1018.21 1017.89 1017.52 1017.11 1016.69 1016.29
1015.77 1015.93 1016.14 1016.35 1016.53 1016.67 1016.74 1016.77 1016.77 1016.79 1016.86 1016.99 1017.21 1017.51 1017.85 1018.21 1018.56 1018.87 1019.11 1019.29 1019.40 1019.45 1019.46 1019.44 1019.39 1019.33 1019.26 1019.17 1019.09 1019.00 1018.92 1018.85 1018.78 1018.70 1018.61 1018.49 1018.32 1018.08 1017.79 1017.43 1017.02 1016.59 1016.17
1015.99 1016.16 1016.37 1016.57 1016.73 1016.85 1016.91 1016.93 1016.94 1016.96 1017.02 1017.15 1017.35 1017.60 1017.89 1018.20 1018.49 1018.74 1018.95 1019.11 1019.22 1019.30 1019.35 1019.37 1019.38 1019.37 1019.32 1019.26 1019.16 1019.05 1018.93 1018.81 1018.69 1018.58 1018.47 1018.35 1018.19 1017.98 1017.71 1017.37 1016.99 1016.56 1016.12
1016.16 1016.35 1016.56 1016.76 1016.92 1017.04 1017.12 1017.16 1017.19 1017.23 1017.31 1017.43 1017.60 1017.81 1018.04 1018.28 1018.49 1018.68 1018.84 1018.98 1019.10 1019.21 1019.31 1019.40 1019.48 1019.52 1019.52 1019.48 1019.38 1019.24 1019.07 1018.90 1018.73 1018.57 1018.43 1018.30 1018.15 1017.97 1017.73 1017.43 1017.07 1016.65 1016.19
1016.32 1016.52 1016.74 1016.94 1017.12 1017.26 1017.36 1017.43 1017.50 1017.57 1017.67 1017.80 1017.95 1018.13 1018.30 1018.47 1018.61 1018.74 1018.86 1018.98 1019.11 1019.26 1019.42 1019.59 1019.74 1019.86 1019.91 1019.89 1019.79 1019.63 1019.43 1019.19 1018.97 1018.77 1018.59 1018.45 1018.30 1018.14 1017.94 1017.67 1017.32 1016.91 1016.43
1016.53 1016.73 1016.95 1017.15 1017.34 1017.50 1017.63 1017.75 1017.86 1017.97 1018.10 1018.24 1018.38 1018.52 1018.65 1018.77 1018.86 1018.94 1019.03 1019.15 1019.30 1019.50 1019.72 1019.97 1020.20 1020.39 1020.50 1020.52 1020.43 1020.25 1020.01 1019.73 1019.46 1019.21 1019.01 1018.84 1018.69 1018.54 1018.35 1018.10 1017.77 1017.35 1016.85
1016.82 1017.02 1017.23 1017.43 1017.63 1017.81 1017.97 1018.12 1018.27 1018.42 1018.57 1018.72 1018.87 1019.00 1019.10 1019.18 1019.24 1019.30 1019.39 1019.51 1019.70 1019.94 1020.23 1020.55 1020.86 1021.12 1021.28 1021.33 1021.26 1021.08 1020.82 1020.51 1020.20 1019.91 1019.68 1019.49 1019.33 1019.17 1018.99 1018.74 1018.39 1017.96 1017.43
1017.22 1017.41 1017.61 1017.81 1018.01 1018.19 1018.38 1018.55 1018.73 1018.91 1019.09 1019.26 1019.41 1019.54 1019.64 1019.71 1019.77 1019.83 1019.92 1020.07 1020.29 1020.58 1020.93 1021.31 1021.68 1021.99 1022.20 1022.29 1022.24 1022.07 1021.80 1021.48 1021.14 1020.83 1020.57 1020.35 1020.17 1019.99 1019.78 1019.51 1019.14 1018.67 1018.10
1017.72 1017.90 1018.10 1018.30 1018.49 1018.68 1018.87 1019.06 1019.26 1019.46 1019.65 1019.84 1020.02 1020.16 1020.27 1020.36 1020.43 1020.51 1020.63 1020.80 1021.05 1021.38 1021.77 1022.19 1022.60 1022.95 1023.19 1023.31 1023.29 1023.13 1022.88 1022.56 1022.21 1021.88 1021.59 1021.35 1021.13 1020.91 1020.66 1020.34 1019.93 1019.41 1018.79
1018.29 1018.48 1018.68 1018.88 1019.08 1019.27 1019.46 1019.66 1019.86 1020.07 1020.28 1020.49 1020.68 1020.84 1020.98 1021.10 1021.20 1021.31 1021.46 1021.66 1021.94 1022.29 1022.69 1023.12 1023.55 1023.91 1024.18 1024.32 1024.32 1024.19 1023.96 1023.65 1023.31 1022.97 1022.66 1022.38 1022.11 1021.84 1021.53 1021.15 1020.67 1020.10 1019.43
1018.87 1019.09 1019.31 1019.52 1019.73 1019.92 1020.12 1020.31 1020.52 1020.73 1020.95 1021.17 1021.39 1021.58 1021.75 1021.91 1022.05 1022.19 1022.37 1022.60 1022.88 1023.23 1023.63 1024.05 1024.47 1024.82 1025.09 1025.24 1025.27 1025.16 1024.96 1024.67 1024.35 1024.01 1023.67 1023.35 1023.03 1022.69 1022.31 1021.85 1021.31 1020.67 1019.95
1019.42 1019.68 1019.93 1020.17 1020.39 1020.60 1020.80 1021.00 1021.21 1021.43 1021.66 1021.89 1022.13 1022.35 1022.56 1022.75 1022.93 1023.11 1023.32 1023.55 1023.84 1024.17 1024.54 1024.93 1025.30 1025.63 1025.89 1026.04 1026.08 1026.00 1025.82 1025.56 1025.25 1024.91 1024.56 1024.19 1023.81 1023.40 1022.94 1022.41 1021.79 1021.10 1020.33
1019.87 1020.19 1020.49 1020.77 1021.02 1021.25 1021.46 1021.67 1021.89 1022.11 1022.36 1022.61 1022.87 1023.13 1023.37 1023.60 1023.82 1024.03 1024.25 1024.49 1024.75 1025.05 1025.38 1025.72 1026.05 1026.34 1026.56 1026.70 1026.74 1026.68 1026.52 1026.29 1025.99 1025.66 1025.28 1024.88 1024.45 1023.96 1023.43 1022.82 1022.14 1021.39 1020.59
1020.22 1020.60 1020.95 1021.27 1021.56 1021.82 1022.06 1022.29 1022.52 1022.76 1023.03 1023.31 1023.60 1023.89 1024.17 1024.44 1024.69 1024.92 1025.15 1025.38 1025.62 1025.88 1026.16 1026.43 1026.70 1026.94 1027.12 1027.24 1027.27 1027.22 1027.08 1026.87 1026.58 1026.24 1025.86 1025.42 1024.93 1024.39 1023.79 1023.12 1022.38 1021.59 1020.76
Thickness
5719 5718 5717 5716 5715 5714 5713 5712 5711 5710 5709 5708 5707 5707 5706 5705 5705 5706 5707 5707 5708 5708 5708 5708 5708 5708 5708 5707 5707 5707 5707 5708 5708 5709 5709 5710 5711 5712 5712 5713 5714 5714 5715
5717 5716 5714 5712 5711 5710 5709 5708 5707 5706 5705 5703 5702 5702 5702 5701 5701 5701 5701 5702 5702 5702 5702 5702 5703 5703 5702 5702 5702 5702 5702 5702 5703 5704 5704 5704 5705 5706 5707 5707 5708 5709 5710
5715 5713 5711 5709 5708 5707 5706 5705 5703 5702 5701 5699 5698 5697 5697 5696 5696 5696 5696 5696 5696 5696 5696 5696 5697 5697 5697 5697 5697 5697 5697 5697 5698 5698 5698 5699 5700 5701 5701 5702 5703 5704 5704
5712 5711 5708 5707 5705 5704 5702 5701 5699 5697 5695 5694 5693 5692 5692 5691 5691 5691 5691 5690 5690 5690 5690 5690 5691 5691 5691 5691 5692 5692 5692 5692 5692 5693 5693 5694 5694 5695 5696 5697 5697 5698 5698
5710 5708 5706 5705 5703 5701 5699 5698 5695 5693 5691 5689 5689 5688 5687 5686 5686 5686 5685 5685 5685 5685 5684 5684 5685 5685 5686 5686 5686 5687 5687 5687 5687 5688 5688 5689 5689 5690 5691 5691 5692 5693 5693
5707 5706 5704 5702 5701 5698 5696 5694 5691 5690 5688 5687 5686 5683 5682 5682 5682 5681 5680 5680 5679 5679 5679 5679 5679 5679 5680 5681 5681 5682 5682 5683 5683 5683 5684 5684 5684 5685 5686 5686 5687 5688 5688
5705 5704 5701 5699 5698 5696 5693 5691 5688 5685 5683 5683 5680 5675 5675 5677 5676 5676 5676 5675 5674 5674 5674 5674 5674 5674 5674 5674 5675 5676 5677 5678 5678 5678 5679 5679 5680 5680 5681 5682 5682 5683 5683
5703 5701 5699 5697 5695 5693 5690 5688 5686 5681 5680 5680 5676 5670 5666 5666 5669 5671 5671 5670 5670 5670 5670 5669 5669 5669 5669 5669 5670 5671 5672 5673 5674 5674 5674 5675 5675 5675 5676 5677 5677 5677 5678
5701 5700 5698 5696 5693 5691 5688 5687 5685 5681 5677 5677 5677 5671 5663 5659 5661 5664 5665 5666 5666 5665 5665 5665 5664 5664 5664 5664 5665 5666 5667 5668 5669 5670 5670 5670 5670 5670 5671 5671 5672 5672 5673
5699 5698 5696 5694 5692 5690 5688 5686 5685 5682 5678 5674 5674 5674 5671 5667 5660 5656 5658 5660 5661 5661 5661 5660 5660 5659 5660 5660 5660 5661 5662 5663 5664 5664 5665 5665 5665 5665 5665 5666 5666 5666 5667
5695 5695 5694 5692 5690 5689 5687 5686 5684 5681 5679 5676 5673 5671 5669 5666 5663 5657 5652 5653 5654 5656 5656 5656 5656 5656 5656 5656 5656 5656 5657 5658 5658 5659 5659 5659 5659 5659 5660 5660 5659 5660 5660
5692 5692 5691 5690 5689 5688 5686 5685 5683 5681 5679 5677 5675 5672 5669 5665 5661 5658 5652 5650 5649 5650 5651 5652 5652 5652 5651 5652 5652 5652 5652 5653 5653 5653 5653 5654 5653 5654 5654 5654 5654 5654 5654
5688 5689 5689 5688 5687 5686 5685 5684 5681 5680 5679 5677 5675 5673 5671 5669 5666 5661 5655 5649 5647 5646 5647 5647 5648 5648 5648 5648 5648 5648 5648 5648 5648 5648 5648 5648 5648 5647 5647 5648 5648 5648 5648
5687 5688 5687 5686 5685 5685 5684 5682 5680 5679 5678 5676 5675 5673 5671 5669 5667 5664 5658 5652 5645 5642 5643 5643 5645 5645 5645 5645 5644 5644 5643 5643 5643 5643 5642 5642 5642 5642 5641 5642 5642 5642 5642
5686 5686 5685 5684 5684 5682 5682 5681 5679 5678 5676 5675 5674 5672 5670 5669 5667 5665 5661 5658 5650 5641 5639 5641 5641 5642 5642 5642 5641 5640 5639 5639 5638 5638 5637 5637 5636 5636 5636 5636 5636 5636 5636
5683 5683 5682 5682 5681 5681 5680 5679 5677 5676 5675 5673 5672 5670 5669 5667 5665 5663 5661 5657 5654 5648 5641 5641 5640 5640 5640 5639 5637 5637 5636 5634 5634 5633 5632 5632 5631 5631 5631 5631 5630 5630 5630
5681 5681 5680 5680 5679 5679 5678 5677 5676 5675 5673 5672 5671 5669 5667 5666 5664 5662 5659 5656 5653 5650 5643 5640 5639 5638 5637 5636 5634 5633 5632 5630 5629 5628 5627 5627 5627 5626 5626 5626 5625 5624 5624
5678 5678 5678 5677 5677 5677 5677 5675 5674 5673 5672 5670 5669 5667 5665 5665 5662 5660 5658 5655 5653 5650 5646 5640 5637 5635 5634 5633 5631 5630 5628 5626 5625 5624 5623 5623 5622 5622 5621 5621 5620 5619 5618
5675 5675 5675 5674 5674 5675 5674 5674 5673 5672 5671 5669 5668 5666 5665 5663 5660 5659 5657 5654 5652 5650 5646 5642 5636 5634 5632 5630 5627 5626 5624 5623 5622 5620 5619 5619 5618 5617 5617 5616 5615 5614 5613
5670 5670 5671 5671 5672 5672 5672 5671 5671 5670 5668 5668 5667 5666 5665 5663 5661 5659 5656 5653 5650 5647 5643 5639 5635 5631 5629 5627 5624 5621 5619 5619 5618 5617 5616 5615 5614 5613 5612 5611 5610 5609 5608
5666 5666 5666 5667 5668 5668 5669 5668 5668 5667 5666 5665 5664 5664 5664 5663 5662 5660 5657 5653 5649 5644 5640 5636 5632 5628 5626 5623 5622 5620 5617 5615 5613 5613 5612 5611 5610 5609 5608 5607 5605 5604 5603
5660 5660 5661 5662 5663 5665 5666 5666 5665 5664 5663 5662 5661 5660 5660 5660 5659 5658 5657 5654 5651 5646 5640 5635 5631 5628 5626 5625 5622 5619 5614 5611 5609 5609 5608 5606 5605 5604 5603 5602 5601 5599 5598
5654 5654 5655 5656 5658 5660 5662 5662 5662 5661 5660 5659 5658 5658 5658 5658 5656 5654 5653 5651 5648 5647 5645 5640 5634 5631 5628 5626 5622 5618 5614 5611 5609 5608 5605 5602 5601 5600 5600 5598 5597 5595 5594
5649 5649 5650 5651 5653 5655 5657 5658 5658 5657 5657 5656 5656 5655 5654 5654 5653 5651 5648 5645 5643 5642 5641 5639 5636 5634 5631 5628 5624 5621 5616 5611 5607 5605 5603 5599 5597 5596 5596 5595 5593 5591 5589
5644 5645 5646 5647 5648 5650 5652 5653 5653 5651 5651 5652 5652 5652 5652 5651 5650 5648 5644 5641 5638 5637 5637 5635 5634 5631 5629 5626 5622 5617 5611 5606 5603 5601 5600 5597 5595 5593 5592 5591 5589 5587 5585
5641 5641 5641 5643 5644 5646 5648 5649 5649 5647 5646 5646 5647 5648 5648 5648 5647 5644 5641 5638 5634 5633 5632 5630 5628 5626 5624 5621 5619 5616 5612 5606 5601 5598 5598 5594 5592 5589 5586 5586 5585 5583 5580